Waarnemingen

Advertentie
Mijn weer
Kalmar, Zweden (2670): temperatuur & dauwpunt: 08.08.2018 17:00:00 - 14.08.2018 17:00:00 (CEST)Kalmar, Zweden (2670): windsnelheid: 08.08.2018 17:00:00 - 14.08.2018 17:00:00 (CEST)Kalmar, Zweden (2670): windrichting: 08.08.2018 17:00:00 - 14.08.2018 17:00:00 (CEST)Kalmar, Zweden (2670): luchtdruk: 08.08.2018 17:00:00 - 14.08.2018 17:00:00 (CEST)Kalmar, Zweden (2670): zicht: 08.08.2018 17:00:00 - 14.08.2018 17:00:00 (CEST)
Datum & Tijd tt [°C] td [°C] ff [km/u] ff [kn] dd ppp [hPa] vv [km]
14.08.2018 17:00:00 17,0 15,7 8 4 ZZW 1005,3 10
14.08.2018 16:00:00 16,3 15,2 13 7 WNW 1005,0 10
14.08.2018 15:00:00 22,3 17,2 18 10 ZZO 1004,9 10
14.08.2018 14:00:00 21,8 17,4 15 8 ZO 1005,0 10
14.08.2018 13:00:00 22,6 17,5 21 11 OZO 1005,3 10
14.08.2018 12:00:00 20,3 17,1 21 11 OZO 1005,8 10
14.08.2018 11:00:00 19,3 17,1 18 10 O 1006,3 10
14.08.2018 10:00:00 19,1 17,1 18 10 O 1006,8 10
14.08.2018 09:00:00 18,6 16,8 16 9 O 1007,1 10
14.08.2018 08:00:00 18,4 16,6 13 7 O 1007,3 10
14.08.2018 07:00:00 17,9 16,4 11 6 ONO 1007,5 10
14.08.2018 06:00:00 17,5 16,4 11 6 ONO 1007,6 10
14.08.2018 05:00:00 17,6 16,8 8 4 O 1008,4 10
14.08.2018 04:00:00 17,2 16,6 8 4 O 1008,6 10
14.08.2018 03:00:00 16,6 16,0 8 4 ONO 1008,9 10
14.08.2018 02:00:00 17,2 15,9 5 3 O 1009,6 10
14.08.2018 01:00:00 17,2 15,7 5 3 O 1009,9 10
14.08.2018 00:00:00 16,7 15,2 5 3 O 1009,7 10
13.08.2018 23:00:00 16,6 14,8 9 5 OZO 1009,7 10
13.08.2018 22:00:00 16,4 14,2 13 7 OZO 1009,7 10
13.08.2018 21:00:00 16,4 13,7 9 5 ZO 1009,9 10
13.08.2018 20:00:00 17,5 13,4 11 6 ZO 1010,0 10
13.08.2018 19:00:00 18,4 13,9 8 4 ZZO 1009,9 10
13.08.2018 18:00:00 17,8 13,7 9 5 Z 1010,5 10
13.08.2018 17:00:00 18,4 13,7 9 5 Z 1010,7 10
13.08.2018 16:00:00 18,2 13,5 13 7 Z 1010,7 10
13.08.2018 15:00:00 18,2 12,2 11 6 Z 1010,7 10
13.08.2018 14:00:00 18,6 11,2 11 6 Z 1010,9 10
13.08.2018 13:00:00 18,4 10,7 13 7 ZZO 1010,9 10
13.08.2018 12:00:00 18,5 10,1 8 4 ZZO 1011,0 10
13.08.2018 11:00:00 17,7 9,6 5 3 ZZO 1010,9 10
13.08.2018 10:00:00 17,1 10,9 4 2 - 1011,0 10
13.08.2018 09:00:00 16,3 10,8 4 2 O 1010,9 10
13.08.2018 08:00:00 14,3 11,6 5 3 NW 1011,0 10
13.08.2018 07:00:00 13,1 12,0 2 1 - 1010,9 10
13.08.2018 06:00:00 10,7 10,4 4 2 WNW 1010,9 10
13.08.2018 05:00:00 11,2 10,4 2 1 WZW 1010,9 10
13.08.2018 04:00:00 12,8 11,5 8 4 WZW 1010,9 10
13.08.2018 03:00:00 13,7 11,6 5 3 W 1010,9 10
13.08.2018 02:00:00 14,4 11,9 9 5 W 1011,0 10
13.08.2018 01:00:00 14,5 11,5 13 7 W 1011,1 10
13.08.2018 00:00:00 15,1 11,3 11 6 W 1011,0 10
12.08.2018 23:00:00 15,6 10,8 11 6 WZW 1011,1 10
12.08.2018 22:00:00 16,2 10,1 16 9 WZW 1011,2 10
12.08.2018 21:00:00 17,1 9,3 16 9 WZW 1011,1 10
12.08.2018 20:00:00 18,2 7,6 21 11 W 1010,9 10
12.08.2018 19:00:00 19,2 6,7 26 14 W 1010,5 10
12.08.2018 18:00:00 19,6 7,0 28 15 W 1010,6 10
12.08.2018 17:00:00 19,9 6,9 34 18 W 1010,7 10
12.08.2018 16:00:00 19,4 7,8 35 19 W 1010,6 10
12.08.2018 15:00:00 20,9 6,0 37 20 W 1010,2 10
12.08.2018 14:00:00 20,0 7,4 31 17 W 1010,3 10
12.08.2018 13:00:00 19,6 6,3 41 22 W 1010,3 10
12.08.2018 12:00:00 20,0 6,7 35 19 W 1010,2 10
12.08.2018 11:00:00 18,6 8,3 37 20 W 1010,2 10
12.08.2018 10:00:00 17,5 9,9 34 18 W 1010,0 10
12.08.2018 09:00:00 16,8 11,5 29 16 W 1009,8 10
12.08.2018 08:00:00 15,4 11,6 26 14 W 1009,5 10
12.08.2018 07:00:00 12,9 11,1 16 9 WZW 1009,3 10
12.08.2018 06:00:00 12,1 11,0 15 8 WZW 1009,0 10
12.08.2018 05:00:00 11,7 10,6 13 7 W 1008,6 10
12.08.2018 04:00:00 11,5 10,2 15 8 W 1008,2 10
12.08.2018 03:00:00 11,7 9,8 15 8 WZW 1008,7 10
12.08.2018 02:00:00 10,6 9,7 8 4 W 1008,7 10
12.08.2018 01:00:00 11,6 10,2 9 5 W 1008,8 10
12.08.2018 00:00:00 13,3 11,4 9 5 WZW 1009,1 10
11.08.2018 23:00:00 14,3 11,6 13 7 ZZW 1009,5 10
11.08.2018 22:00:00 14,4 11,7 15 8 ZZW 1009,8 10
11.08.2018 21:00:00 15,0 12,0 11 6 ZZW 1010,5 10
11.08.2018 20:00:00 16,3 12,5 13 7 ZZW 1010,9 10
11.08.2018 19:00:00 17,4 13,5 13 7 Z 1011,2 10
11.08.2018 18:00:00 16,1 15,0 9 5 ZO 1012,2 10
11.08.2018 17:00:00 12,8 12,2 5 3 Z 1013,6 2,4
11.08.2018 16:00:00 16,7 10,1 31 17 WZW 1013,8 10
11.08.2018 15:00:00 23,7 10,4 26 14 Z 1013,5 10
11.08.2018 14:00:00 20,8 13,7 8 4 WNW 1014,8 10
11.08.2018 13:00:00 17,2 13,1 8 4 WNW 1016,1 10
11.08.2018 12:00:00 16,8 14,3 4 2 WNW 1016,7 6
11.08.2018 11:00:00 20,9 13,8 24 13 Z 1017,0 10
11.08.2018 10:00:00 21,5 14,4 21 11 Z 1017,5 10
11.08.2018 09:00:00 20,5 12,0 16 9 ZW 1017,9 10
11.08.2018 08:00:00 17,9 11,7 5 3 ZW 1018,2 10
11.08.2018 07:00:00 14,6 10,8 8 4 ZZW 1018,6 10
11.08.2018 06:00:00 10,9 9,0 5 3 WZW 1018,8 10
11.08.2018 05:00:00 12,4 9,2 8 4 ZW 1018,8 10
11.08.2018 04:00:00 13,5 9,5 9 5 ZW 1018,9 10
11.08.2018 03:00:00 13,3 9,2 9 5 ZW 1019,0 10
11.08.2018 02:00:00 14,0 9,0 13 7 WZW 1019,1 10
11.08.2018 01:00:00 14,8 8,1 9 5 ZW 1019,2 10
11.08.2018 00:00:00 13,5 7,9 5 3 ZZW 1019,1 10
10.08.2018 23:00:00 15,4 7,7 5 3 Z 1018,8 10
10.08.2018 22:00:00 18,6 7,4 16 9 WZW 1018,5 10
10.08.2018 21:00:00 19,3 8,3 16 9 W 1017,8 10
10.08.2018 20:00:00 21,0 7,6 21 11 W 1016,8 10
10.08.2018 19:00:00 21,9 8,8 31 17 W 1015,9 10
10.08.2018 18:00:00 23,6 10,6 31 17 WZW 1015,2 10
10.08.2018 17:00:00 24,3 10,2 24 13 ZW 1014,5 10
10.08.2018 16:00:00 24,8 11,4 29 16 ZW 1013,8 10
10.08.2018 15:00:00 24,5 11,8 28 15 WZW 1013,6 10
10.08.2018 14:00:00 24,4 13,6 24 13 ZW 1012,9 10
10.08.2018 13:00:00 25,0 13,5 26 14 ZW 1012,0 10
10.08.2018 12:00:00 25,5 14,6 26 14 ZW 1011,6 10
10.08.2018 11:00:00 24,0 15,5 28 15 ZZW 1010,9 10
10.08.2018 10:00:00 24,1 17,3 26 14 ZW 1010,4 10
10.08.2018 09:00:00 23,5 19,6 18 10 ZZW 1009,7 10
10.08.2018 08:00:00 23,1 19,7 22 12 Z 1009,5 10
10.08.2018 07:00:00 22,2 21,2 24 13 Z 1009,1 10
10.08.2018 06:00:00 21,6 20,6 8 4 Z 1008,1 10
10.08.2018 05:00:00 23,0 20,7 21 11 Z 1008,2 10
10.08.2018 04:00:00 24,1 20,6 21 11 Z 1009,0 10
10.08.2018 03:00:00 23,3 19,9 16 9 OZO 1008,9 10
10.08.2018 02:00:00 22,4 19,2 15 8 O 1010,2 10
10.08.2018 01:00:00 18,6 16,9 8 4 O 1011,4 10
10.08.2018 00:00:00 17,3 15,3 4 2 NO 1012,5 10
09.08.2018 23:00:00 19,6 16,1 5 3 OZO 1013,5 10
09.08.2018 22:00:00 21,2 17,4 9 5 Z 1013,9 10
09.08.2018 21:00:00 22,4 18,2 16 9 Z 1013,9 10
09.08.2018 20:00:00 23,5 18,4 21 11 Z 1014,0 10
09.08.2018 19:00:00 24,8 18,3 24 13 Z 1014,1 10
09.08.2018 18:00:00 25,0 18,0 26 14 Z 1014,1 10
09.08.2018 17:00:00 26,4 17,2 24 13 Z 1014,3 10
09.08.2018 16:00:00 28,1 15,0 24 13 ZZO 1014,7 10
09.08.2018 15:00:00 28,3 17,5 24 13 Z 1014,8 10
09.08.2018 14:00:00 27,6 18,6 18 10 Z 1015,2 10
09.08.2018 13:00:00 28,6 18,4 9 5 ZZW 1015,2 10
09.08.2018 12:00:00 28,2 18,3 13 7 WZW 1015,4 10
09.08.2018 11:00:00 26,6 18,7 13 7 WZW 1015,4 10
09.08.2018 10:00:00 25,4 18,6 9 5 ZW 1015,2 10
09.08.2018 09:00:00 24,2 19,5 2 1 - 1014,7 10
09.08.2018 08:00:00 22,2 19,2 8 4 W 1014,2 10
09.08.2018 07:00:00 20,8 18,7 9 5 WNW 1013,8 10
09.08.2018 06:00:00 21,5 17,9 9 5 W 1013,5 10
09.08.2018 05:00:00 20,9 17,9 4 2 WZW 1012,9 10
09.08.2018 04:00:00 20,5 19,2 0 0 N 1012,5 10
09.08.2018 03:00:00 20,3 18,8 0 0 N 1011,9 10
09.08.2018 02:00:00 21,4 19,3 5 3 Z 1012,1 10
09.08.2018 01:00:00 21,9 18,7 4 2 ZO 1011,9 10
09.08.2018 00:00:00 22,7 18,9 5 3 ZZO 1011,9 10
08.08.2018 23:00:00 24,4 18,1 9 5 Z 1011,6 10
08.08.2018 22:00:00 23,4 18,1 15 8 ZO 1011,0 10
08.08.2018 21:00:00 23,5 18,2 13 7 ZZO 1011,5 10
08.08.2018 20:00:00 24,7 17,7 16 9 ZO 1011,1 10
08.08.2018 19:00:00 26,1 17,7 16 9 ZZO 1011,2 10
08.08.2018 18:00:00 25,6 17,8 18 10 ZO 1011,8 10
08.08.2018 17:00:00 26,9 17,1 18 10 ZZO 1012,0 10

tt = temperatuur
td = dauwpunt
ff = windsnelheid
dd = windrichting
ppp = luchtdruk
vv = zicht

Weerstations in de omgeving